Content
SEND FEEDBACK

Daily
Averages
Monthly
Summary
United States of America

JACKSON, MICHIGAN


Home > North America > United States > Michigan
Elevation: 1000 feet     Latitude: 42 15N     Longitude: 084 27W

WEATHER
 
SELECT A DAY
Number of Records: 74,877;   Date Range: 1/1/95 - 4/15/14
 
SHARE

PRINT THIS DATA

[ ← Previous Day ]
WEATHER ALMANAC - JANUARY 31, 2013
[ Next Day → ]
[ °C ]   °F
Weather ElementAverageHighLow
Temperature19.2 °F27 °F (12:56 am)15.1 °F (8:56 pm)
Dewpoint12.3 °F18 °F (12:56 am)7 °F (5:56 pm)
Humidity75.1 %86 % (5:30 am)63 % (11:03 am)
Barometer29.68 in29.92 in (11:56 pm)29.37 in (12:56 am)
Wind Speed13.3 mph23 mph (12:56 am)
Wind Gust32.2 mph (12:56 am)
Weather ElementAverage
Visibility4.2 mi
Wind DirectionW (270.9 °)

Weather ElementTotal
Precipitation---
Heating Degree Days44 (Base 65)
Averaged from 77 records on January 31, 2013
WEATHER CONDITIONS BREAKOUT
WIND DIRECTION BREAKOUT
WEATHER BY HOUR - JANUARY 31, 2013
[ °C ]   °F
Local TimeTemperatureDewpointHumidityBarometerVisibilityWind DirectionWind SpeedGust SpeedPrecipitationEventsConditions
12:56 AM27.0 °F18.0 °F69 %29.37 in10.0 miWest (280°)23.0 mph32.2 mphOvercast
1:56 AM26.1 °F18.0 °F71 %29.40 in9.0 miWest (280°)12.7 mph31.1 mph0.00 inOvercast
2:27 AM24.8 °F17.6 °F74 %29.40 in10.0 miWest (280°)19.6 mph32.2 mphOvercast
2:56 AM25.0 °F17.1 °F72 %29.44 in10.0 miWest (280°)13.8 mph28.8 mphOvercast
3:56 AM24.1 °F14.0 °F65 %29.47 in10.0 miWNW (290°)11.5 mph27.6 mph0.00 inOvercast
4:37 AM23.0 °F14.0 °F68 %29.47 in9.0 miWest (270°)13.8 mph23.0 mph0.00 inOvercast
4:56 AM21.9 °F15.1 °F75 %29.51 in3.0 miWest (280°)18.4 mph23.0 mph0.00 inSnowLight Snow
4:58 AM21.2 °F15.8 °F80 %29.49 in1.8 miWNW (290°)13.8 mph23.0 mph0.00 inSnowLight Snow
5:30 AM21.2 °F17.6 °F86 %29.50 in2.5 miWest (270°)10.4 mph21.9 mph0.00 inSnowLight Snow
5:38 AM21.2 °F15.8 °F80 %29.50 in5.0 miWest (270°)16.1 mph29.9 mph0.00 inSnowLight Snow
5:56 AM21.9 °F14.0 °F72 %29.54 in10.0 miWest (270°)17.3 mph31.1 mph0.00 inOvercast
6:30 AM21.2 °F15.8 °F80 %29.53 in1.8 miWest (270°)13.8 mph20.7 mph0.00 inSnowLight Snow
6:51 AM19.4 °F15.8 °F86 %29.54 in0.8 miWest (280°)13.8 mph21.9 mph0.00 inSnowLight Snow
6:56 AM19.9 °F16.0 °F85 %29.57 in0.5 miWest (280°)12.7 mph19.6 mph0.00 inFog-SnowSnow
7:04 AM19.4 °F15.8 °F86 %29.54 in1.8 miWest (260°)13.8 mph21.9 mph0.00 inSnowLight Snow
7:07 AM19.4 °F15.8 °F86 %29.54 in3.0 miWest (260°)10.4 mph21.9 mph0.00 inSnowLight Snow
7:56 AM19.9 °F14.0 °F78 %29.60 in7.0 miWest (270°)16.1 mph21.9 mph0.00 inSnowLight Snow
8:03 AM19.4 °F12.2 °F74 %29.57 in6.0 miWest (270°)16.1 mph26.5 mph0.00 inSnowLight Snow
8:16 AM19.4 °F12.2 °F74 %29.57 in2.0 miWest (280°)16.1 mph27.6 mph0.00 inSnowLight Snow
8:23 AM19.4 °F12.2 °F74 %29.58 in1.2 miWest (270°)15.0 mph23.0 mph0.00 inSnowLight Snow
8:40 AM19.4 °F12.2 °F74 %29.59 in9.0 miWest (280°)9.2 mph20.7 mph0.00 inOvercast
8:56 AM19.9 °F10.9 °F68 %29.63 in10.0 miWest (280°)12.7 mph23.0 mph0.00 inOvercast
9:08 AM19.4 °F12.2 °F74 %29.60 in10.0 miWest (280°)12.7 mph27.6 mphOvercast
9:44 AM19.4 °F12.2 °F74 %29.62 in10.0 miWest (270°)12.7 mph26.5 mph0.00 inOvercast
9:56 AM19.9 °F12.0 °F71 %29.67 in7.0 miWest (260°)15.0 mph24.2 mph0.00 inSnowLight Snow
10:31 AM19.4 °F12.2 °F74 %29.65 in2.5 miWest (260°)13.8 mph19.6 mph0.00 inSnowLight Snow
10:36 AM19.4 °F12.2 °F74 %29.66 in0.8 miWest (260°)18.4 mph31.1 mph0.00 inSnowLight Snow
10:45 AM19.4 °F12.2 °F74 %29.66 in2.0 miWest (270°)19.6 mph27.6 mph0.00 inSnowLight Snow
10:52 AM19.4 °F10.4 °F68 %29.66 in8.0 miWest (280°)18.4 mph28.8 mph0.00 inSnowLight Snow
10:56 AM21.0 °F10.9 °F65 %29.70 in8.0 miWest (280°)15.0 mph27.6 mph0.00 inSnowLight Snow
11:03 AM21.2 °F10.4 °F63 %29.67 in9.0 miWest (270°)16.1 mph26.5 mph0.00 inOvercast
11:24 AM19.4 °F10.4 °F68 %29.68 in4.0 miWest (260°)20.7 mph26.5 mph0.00 inSnowLight Snow
11:41 AM19.4 °F10.4 °F68 %29.68 in4.0 miWest (270°)13.8 mph27.6 mph0.00 inSnowLight Snow
11:56 AM19.9 °F10.0 °F65 %29.72 in9.0 miWest (260°)15.0 mph27.6 mph0.00 inOvercast
12:04 PM19.4 °F10.4 °F68 %29.68 in2.5 miWest (280°)15.0 mph23.0 mph0.00 inSnowLight Snow
12:10 PM19.4 °F12.2 °F74 %29.68 in0.8 miWNW (290°)13.8 mph20.7 mph0.00 inSnowLight Snow
12:49 PM19.4 °F14.0 °F80 %29.68 in0.5 miWest (280°)15.0 mph20.7 mph0.00 inSnowSnow
12:53 PM19.4 °F12.2 °F74 %29.68 in2.0 miWest (260°)13.8 mph20.7 mph0.00 inSnowLight Snow
12:56 PM19.9 °F12.9 °F74 %29.73 in3.0 miWest (270°)16.1 mph21.9 mph0.00 inSnowLight Snow
1:06 PM19.4 °F12.2 °F74 %29.68 in2.0 miWest (270°)12.7 mph21.9 mph0.00 inSnowLight Snow
1:11 PM19.4 °F12.2 °F74 %29.68 in3.0 miWest (270°)11.5 mph23.0 mph0.00 inSnowLight Snow
1:14 PM19.4 °F12.2 °F74 %29.69 in1.8 miWest (270°)15.0 mph23.0 mph0.00 inSnowLight Snow
1:22 PM19.4 °F14.0 °F80 %29.69 in0.2 miWest (270°)13.8 mph21.9 mph0.00 inSnowHeavy Snow
1:29 PM19.4 °F14.0 °F80 %29.69 in0.2 miWest (270°)11.5 mph18.4 mph0.00 inSnowHeavy Snow
1:43 PM19.4 °F14.0 °F80 %29.69 in0.5 miWest (270°)13.8 mph27.6 mph0.00 inSnowSnow
1:48 PM19.4 °F12.2 °F74 %29.69 in2.0 miWest (270°)11.5 mph27.6 mph0.00 inSnowLight Snow
1:56 PM19.9 °F12.9 °F74 %29.74 in1.5 miWest (260°)13.8 mph20.7 mph0.00 inSnowLight Snow
2:20 PM19.4 °F14.0 °F80 %29.70 in0.5 miWest (270°)13.8 mph0.00 inSnowSnow
2:26 PM19.4 °F12.2 °F74 %29.70 in2.0 miWest (270°)11.5 mph20.7 mph0.00 inSnowLight Snow
2:30 PM19.4 °F12.2 °F74 %29.70 in9.0 miWest (260°)13.8 mph19.6 mph0.00 inSnowLight Snow
2:56 PM19.9 °F10.0 °F65 %29.75 in10.0 miWest (260°)16.1 mph27.6 mph0.00 inMostly Cloudy
3:56 PM19.0 °F10.0 °F68 %29.78 in3.0 miWest (280°)15.0 mph26.5 mph0.00 inSnowLight Snow
3:58 PM17.6 °F10.4 °F73 %29.73 in2.0 miWest (280°)13.8 mph26.5 mph0.00 inSnowLight Snow
4:01 PM17.6 °F10.4 °F73 %29.74 in0.8 miWest (280°)13.8 mph26.5 mph0.00 inSnowLight Snow
4:08 PM17.6 °F12.2 °F79 %29.74 in0.2 miWest (280°)11.5 mph23.0 mph0.00 inSnowHeavy Snow
4:20 PM17.6 °F12.2 °F79 %29.74 in0.8 miWest (270°)9.2 mph0.00 inSnowLight Snow
4:23 PM17.6 °F12.2 °F79 %29.74 in1.2 miWest (260°)8.1 mph18.4 mph0.00 inSnowLight Snow
4:26 PM17.6 °F12.2 °F79 %29.74 in3.0 miWest (260°)10.4 mph0.00 inSnowLight Snow
4:33 PM17.6 °F10.4 °F73 %29.74 in9.0 miWSW (250°)16.1 mph23.0 mph0.00 inOvercast
4:56 PM18.0 °F10.0 °F71 %29.79 in5.0 miWest (270°)15.0 mph21.9 mph0.00 inSnowLight Snow
5:56 PM17.1 °F7.0 °F65 %29.81 in9.0 miWest (280°)11.5 mph19.6 mph0.00 inOvercast
6:24 PM17.6 °F8.6 °F68 %29.78 in10.0 miWest (270°)13.8 mph19.6 mph0.00 inSnowLight Snow
6:33 PM17.6 °F8.6 °F68 %29.78 in6.0 miWest (270°)11.5 mph20.7 mph0.00 inSnowLight Snow
6:56 PM17.1 °F10.0 °F74 %29.84 in5.0 miWest (280°)10.4 mph0.00 inSnowLight Snow
7:37 PM15.8 °F8.6 °F73 %29.81 in5.0 miWest (270°)13.8 mph19.6 mph0.00 inSnowLight Snow
7:47 PM15.8 °F10.4 °F79 %29.81 in2.0 miWest (270°)8.1 mph0.00 inSnowLight Snow
7:56 PM16.0 °F10.0 °F77 %29.87 in2.5 miWest (270°)8.1 mph0.00 inSnowLight Snow
8:13 PM15.8 °F12.2 °F86 %29.82 in1.2 miWest (260°)6.9 mph0.00 inSnowLight Snow
8:56 PM15.1 °F10.9 °F84 %29.89 in1.5 miWest (260°)10.4 mph0.00 inSnowLight Snow
9:22 PM15.8 °F10.4 °F79 %29.84 in2.5 miWest (260°)11.5 mph0.00 inSnowLight Snow
9:56 PM15.1 °F10.9 °F84 %29.90 in1.5 miWest (260°)6.9 mph0.00 inSnowLight Snow
10:19 PM15.8 °F10.4 °F79 %29.86 in2.0 miWest (260°)9.2 mph0.00 inSnowLight Snow
10:54 PM15.8 °F10.4 °F79 %29.86 in1.8 miWest (270°)9.2 mph0.00 inSnowLight Snow
10:56 PM15.1 °F10.9 °F84 %29.91 in1.5 miWest (270°)9.2 mph0.00 inSnowLight Snow
11:35 PM15.8 °F10.4 °F79 %29.86 in1.0 miWest (280°)8.1 mph0.00 inSnowLight Snow
11:42 PM15.8 °F10.4 °F79 %29.87 in1.8 miWest (260°)9.2 mph0.00 inSnowLight Snow
11:56 PM15.1 °F10.0 °F80 %29.92 in2.5 miWest (270°)9.2 mph0.00 inSnowLight Snow
Hourly data recorded from KJXN, located 0.85 miles away from Jackson, Michigan







STORIES FROM OUR PARTNERS